TimeCDT,TemperatureF,Dew PointF,Humidity,Sea Level PressureIn,VisibilityMPH,Wind Direction,Wind SpeedMPH,Gust SpeedMPH,PrecipitationIn,Events,Conditions,WindDirDegrees,DateUTC
12:52 AM,55.9,53.1,90,29.88,-9999.0,East,9.2,-,N/A,,Unknown,90,2013-05-27 05:52:00
1:52 AM,55.9,53.1,90,29.87,-9999.0,ENE,5.8,-,N/A,,Unknown,60,2013-05-27 06:52:00
2:52 AM,55.9,53.1,90,29.84,-9999.0,ENE,8.1,-,N/A,,Unknown,70,2013-05-27 07:52:00
3:52 AM,55.0,52.0,89,29.81,-9999.0,East,12.7,-,N/A,,Unknown,80,2013-05-27 08:52:00
4:52 AM,55.0,52.0,89,29.80,-9999.0,East,11.5,-,N/A,,Unknown,100,2013-05-27 09:52:00
5:52 AM,55.0,52.0,89,29.83,-9999.0,Calm,Calm,-,N/A,,Unknown,0,2013-05-27 10:52:00
6:52 AM,55.9,53.1,90,29.86,-9999.0,Calm,Calm,-,N/A,,Unknown,0,2013-05-27 11:52:00
7:52 AM,55.9,53.1,90,29.84,-9999.0,ESE,4.6,-,N/A,,Unknown,110,2013-05-27 12:52:00
8:52 AM,59.0,55.0,87,29.80,-9999.0,East,6.9,-,N/A,,Unknown,90,2013-05-27 13:52:00
9:52 AM,62.1,55.9,80,29.80,-9999.0,ESE,9.2,-,N/A,,Unknown,120,2013-05-27 14:52:00
10:52 AM,66.0,55.9,70,29.77,-9999.0,SE,3.5,-,N/A,,Unknown,140,2013-05-27 15:52:00
11:52 AM,70.0,55.9,61,29.77,-9999.0,SE,10.4,-,N/A,,Unknown,140,2013-05-27 16:52:00
12:52 PM,70.0,55.9,61,29.80,-9999.0,ESE,10.4,21.9,N/A,,Unknown,120,2013-05-27 17:52:00
1:52 PM,70.0,57.0,63,29.79,-9999.0,ESE,11.5,-,N/A,,Unknown,110,2013-05-27 18:52:00
2:52 PM,73.9,57.9,57,29.75,-9999.0,SE,15.0,-,N/A,,Unknown,140,2013-05-27 19:52:00
3:52 PM,73.0,57.9,59,29.73,-9999.0,ESE,15.0,24.2,N/A,,Unknown,120,2013-05-27 20:52:00
4:52 PM,75.0,57.0,53,29.70,-9999.0,SE,19.6,25.3,N/A,,Unknown,130,2013-05-27 21:52:00
5:52 PM,73.9,57.0,55,29.68,-9999.0,ESE,17.3,24.2,N/A,,Unknown,120,2013-05-27 22:52:00
6:52 PM,73.0,57.0,57,29.65,-9999.0,ESE,19.6,26.5,N/A,,Unknown,120,2013-05-27 23:52:00
7:52 PM,71.1,60.1,68,29.64,-9999.0,ESE,20.7,27.6,N/A,,Unknown,110,2013-05-28 00:52:00
8:52 PM,66.9,59.0,76,29.69,-9999.0,ESE,15.0,-,N/A,,Unknown,110,2013-05-28 01:52:00
9:52 PM,64.9,57.9,78,29.66,-9999.0,ESE,16.1,-,N/A,,Unknown,110,2013-05-28 02:52:00
10:52 PM,64.0,57.0,78,29.68,-9999.0,ESE,13.8,-,N/A,,Unknown,110,2013-05-28 03:52:00
11:52 PM,57.9,55.0,90,29.78,-9999.0,West,34.5,50.6,0.02,,Unknown,280,2013-05-28 04:52:00
11:58 PM,55.4,53.6,94,29.78,-9999.0,NW,44.9,63.3,0.23,,Unknown,310,2013-05-28 04:58:00